TimeEST,TemperatureF,Dew PointF,Humidity,Sea Level PressureIn,VisibilityMPH,Wind Direction,Wind SpeedMPH,Gust SpeedMPH,PrecipitationIn,Events,Conditions,WindDirDegrees,DateUTC
12:54 AM,33.1,27.0,78,30.21,10.0,NNW,16.1,23.0,N/A,,Clear,340,2013-12-24 05:54:00
1:54 AM,33.1,26.1,75,30.21,10.0,North,13.8,23.0,N/A,,Clear,350,2013-12-24 06:54:00
2:54 AM,32.0,26.1,79,30.22,10.0,North,17.3,25.3,N/A,,Clear,350,2013-12-24 07:54:00
3:39 AM,32.0,26.6,80,30.21,10.0,North,11.5,19.6,N/A,,Mostly Cloudy,360,2013-12-24 08:39:00
3:54 AM,32.0,25.0,75,30.23,10.0,North,15.0,24.2,N/A,,Overcast,360,2013-12-24 08:54:00
4:54 AM,30.9,25.0,79,30.23,10.0,North,17.3,-,N/A,,Mostly Cloudy,350,2013-12-24 09:54:00
5:54 AM,30.9,25.0,79,30.24,10.0,North,15.0,19.6,N/A,,Overcast,350,2013-12-24 10:54:00
6:11 AM,30.2,24.8,80,30.22,10.0,North,16.1,24.2,N/A,,Scattered Clouds,350,2013-12-24 11:11:00
6:37 AM,30.2,24.8,80,30.22,10.0,North,10.4,19.6,N/A,,Mostly Cloudy,360,2013-12-24 11:37:00
6:54 AM,30.9,25.0,79,30.26,10.0,North,10.4,-,N/A,,Overcast,350,2013-12-24 11:54:00
7:21 AM,30.2,24.8,80,30.23,10.0,North,11.5,-,N/A,,Scattered Clouds,350,2013-12-24 12:21:00
7:45 AM,30.2,24.8,80,30.24,10.0,North,10.4,19.6,N/A,,Mostly Cloudy,360,2013-12-24 12:45:00
7:54 AM,30.9,24.1,76,30.27,10.0,North,11.5,-,N/A,,Overcast,360,2013-12-24 12:54:00
8:54 AM,30.9,24.1,76,30.29,10.0,North,15.0,25.3,N/A,,Mostly Cloudy,350,2013-12-24 13:54:00
9:01 AM,32.0,24.8,75,30.26,10.0,North,13.8,23.0,N/A,,Clear,350,2013-12-24 14:01:00
9:54 AM,33.1,23.0,66,30.31,10.0,North,16.1,26.5,N/A,,Mostly Cloudy,350,2013-12-24 14:54:00
10:54 AM,32.0,21.0,64,30.34,10.0,North,12.7,-,N/A,,Mostly Cloudy,10,2013-12-24 15:54:00
11:01 AM,32.0,21.2,64,30.30,10.0,North,15.0,23.0,N/A,,Overcast,350,2013-12-24 16:01:00
11:54 AM,32.0,21.0,64,30.34,10.0,North,12.7,19.6,N/A,,Overcast,360,2013-12-24 16:54:00
12:54 PM,32.0,19.0,59,30.32,10.0,North,16.1,29.9,N/A,,Scattered Clouds,360,2013-12-24 17:54:00
1:54 PM,33.1,17.1,52,30.32,10.0,North,18.4,31.1,N/A,,Clear,360,2013-12-24 18:54:00
2:54 PM,32.0,17.1,54,30.32,10.0,North,19.6,29.9,N/A,,Clear,350,2013-12-24 19:54:00
3:54 PM,30.9,16.0,54,30.35,10.0,North,15.0,23.0,N/A,,Clear,360,2013-12-24 20:54:00
4:54 PM,28.9,15.1,56,30.37,10.0,North,18.4,29.9,N/A,,Clear,350,2013-12-24 21:54:00
5:54 PM,27.0,15.1,61,30.39,10.0,North,16.1,23.0,N/A,,Clear,360,2013-12-24 22:54:00
6:54 PM,26.1,15.1,63,30.40,10.0,North,12.7,20.7,N/A,,Clear,350,2013-12-24 23:54:00
7:54 PM,26.1,15.1,63,30.40,10.0,North,12.7,21.9,N/A,,Clear,350,2013-12-25 00:54:00
8:54 PM,25.0,14.0,63,30.42,10.0,North,6.9,16.1,N/A,,Clear,350,2013-12-25 01:54:00
9:54 PM,25.0,14.0,63,30.42,10.0,North,9.2,-,N/A,,Clear,350,2013-12-25 02:54:00
10:54 PM,24.1,14.0,65,30.41,10.0,North,9.2,-,N/A,,Clear,350,2013-12-25 03:54:00
11:54 PM,24.1,12.9,62,30.42,10.0,North,3.5,-,N/A,,Clear,350,2013-12-25 04:54:00